QPF
0.01 0.01 0.01 0.01 0.01 0.01 0.02 0.03 0.02 0.03 0.03 0.02 0.02 0.01 0.02 0.02 0.03 0.04 0.05 0.06 0.09 0.10 0.10 0.10 0.09 0.07 0.07 0.06 0.07 0.07 0.06 0.05 0.03 0.03 0.03 0.03 0.04 0.03 0.03 0.03 0.03 0.03 0.03
0.01 0.01 0.01 0.01 0.01 0.01 0.02 0.02 0.03 0.03 0.03 0.02 0.01 0.02 0.02 0.02 0.03 0.03 0.04 0.05 0.07 0.09 0.10 0.08 0.07 0.06 0.06 0.07 0.07 0.08 0.07 0.06 0.05 0.04 0.04 0.04 0.04 0.03 0.03 0.02 0.02 0.03 0.03
0.00 0.00 0.00 0.01 0.01 0.01 0.02 0.02 0.02 0.03 0.04 0.03 0.02 0.03 0.02 0.02 0.02 0.02 0.03 0.04 0.05 0.06 0.08 0.10 0.07 0.06 0.05 0.05 0.06 0.06 0.07 0.07 0.06 0.05 0.06 0.05 0.04 0.03 0.02 0.02 0.01 0.01 0.02
0.00 0.00 0.00 0.00 0.01 0.02 0.02 0.02 0.03 0.03 0.04 0.05 0.04 0.04 0.04 0.02 0.01 0.01 0.02 0.03 0.03 0.04 0.04 0.07 0.10 0.09 0.06 0.05 0.05 0.05 0.06 0.06 0.06 0.06 0.04 0.03 0.02 0.02 0.02 0.02 0.01 0.02 0.02
0.01 0.01 0.01 0.00 0.01 0.01 0.03 0.03 0.04 0.04 0.05 0.06 0.06 0.06 0.05 0.04 0.02 0.02 0.01 0.02 0.02 0.03 0.03 0.03 0.05 0.09 0.10 0.07 0.05 0.04 0.05 0.05 0.05 0.05 0.04 0.03 0.02 0.02 0.01 0.01 0.01 0.02 0.02
0.00 0.00 0.00 0.00 0.01 0.01 0.02 0.04 0.05 0.05 0.04 0.05 0.06 0.07 0.07 0.06 0.04 0.03 0.02 0.02 0.02 0.02 0.02 0.02 0.02 0.04 0.06 0.08 0.06 0.04 0.04 0.05 0.04 0.04 0.04 0.03 0.03 0.02 0.01 0.01 0.01 0.01 0.01
0.00 0.00 0.00 0.00 0.00 0.01 0.01 0.03 0.05 0.06 0.05 0.04 0.05 0.07 0.08 0.07 0.05 0.04 0.04 0.04 0.02 0.02 0.02 0.02 0.02 0.02 0.03 0.05 0.07 0.06 0.04 0.03 0.03 0.04 0.04 0.04 0.03 0.03 0.03 0.03 0.02 0.02 0.02
0.00 0.00 0.00 0.00 0.00 0.01 0.01 0.02 0.04 0.05 0.05 0.04 0.04 0.06 0.08 0.07 0.07 0.06 0.05 0.05 0.05 0.04 0.03 0.02 0.02 0.02 0.02 0.03 0.04 0.06 0.06 0.05 0.04 0.04 0.04 0.04 0.04 0.04 0.03 0.03 0.03 0.03 0.03
0.00 0.00 0.00 0.00 0.00 0.01 0.01 0.02 0.03 0.04 0.05 0.05 0.05 0.05 0.07 0.07 0.07 0.06 0.05 0.05 0.05 0.04 0.04 0.04 0.04 0.03 0.03 0.03 0.04 0.04 0.06 0.07 0.07 0.06 0.06 0.05 0.04 0.04 0.03 0.03 0.03 0.03 0.03
0.00 0.00 0.00 0.00 0.00 0.01 0.01 0.01 0.02 0.04 0.04 0.06 0.06 0.05 0.06 0.06 0.05 0.06 0.06 0.06 0.06 0.05 0.04 0.03 0.03 0.03 0.03 0.03 0.04 0.05 0.05 0.06 0.07 0.08 0.08 0.08 0.07 0.06 0.04 0.04 0.04 0.03 0.03
0.00 0.00 0.00 0.00 0.00 0.01 0.01 0.01 0.01 0.03 0.04 0.05 0.06 0.06 0.06 0.07 0.06 0.05 0.06 0.06 0.07 0.06 0.06 0.05 0.04 0.03 0.03 0.03 0.03 0.04 0.04 0.04 0.05 0.06 0.07 0.07 0.08 0.08 0.07 0.06 0.05 0.05 0.04
0.00 0.00 0.00 0.00 0.00 0.01 0.01 0.01 0.01 0.01 0.02 0.03 0.04 0.06 0.06 0.05 0.06 0.05 0.05 0.05 0.05 0.05 0.04 0.04 0.04 0.04 0.03 0.04 0.03 0.03 0.04 0.04 0.04 0.04 0.05 0.06 0.07 0.08 0.08 0.07 0.06 0.05 0.04
0.00 0.01 0.01 0.01 0.01 0.01 0.01 0.02 0.01 0.01 0.01 0.02 0.02 0.04 0.05 0.04 0.04 0.05 0.05 0.04 0.05 0.04 0.04 0.04 0.03 0.04 0.04 0.04 0.03 0.03 0.02 0.02 0.02 0.02 0.02 0.03 0.04 0.04 0.05 0.06 0.06 0.05 0.05
0.01 0.01 0.01 0.01 0.01 0.01 0.01 0.02 0.02 0.02 0.01 0.01 0.02 0.02 0.03 0.04 0.03 0.04 0.05 0.04 0.04 0.04 0.04 0.04 0.04 0.04 0.04 0.04 0.04 0.04 0.03 0.02 0.02 0.02 0.02 0.02 0.02 0.03 0.04 0.04 0.04 0.05 0.05
0.01 0.01 0.01 0.02 0.02 0.02 0.02 0.02 0.02 0.02 0.02 0.02 0.02 0.02 0.02 0.03 0.04 0.03 0.04 0.04 0.03 0.03 0.04 0.04 0.04 0.04 0.04 0.04 0.04 0.04 0.03 0.03 0.03 0.03 0.02 0.02 0.03 0.03 0.04 0.04 0.05 0.05 0.05
0.01 0.01 0.01 0.01 0.02 0.03 0.03 0.03 0.03 0.03 0.03 0.02 0.02 0.02 0.02 0.02 0.03 0.04 0.04 0.04 0.04 0.04 0.04 0.04 0.04 0.03 0.04 0.04 0.04 0.04 0.04 0.03 0.03 0.02 0.02 0.02 0.03 0.03 0.03 0.04 0.05 0.06 0.06
0.01 0.01 0.01 0.01 0.01 0.02 0.03 0.04 0.03 0.03 0.03 0.03 0.03 0.03 0.02 0.02 0.02 0.04 0.04 0.05 0.05 0.05 0.05 0.05 0.06 0.05 0.04 0.04 0.04 0.04 0.04 0.04 0.03 0.03 0.02 0.02 0.02 0.02 0.02 0.03 0.04 0.04 0.05
0.02 0.02 0.01 0.02 0.02 0.02 0.03 0.04 0.04 0.04 0.04 0.04 0.04 0.04 0.04 0.04 0.03 0.03 0.04 0.05 0.06 0.06 0.05 0.05 0.06 0.06 0.06 0.05 0.04 0.04 0.03 0.03 0.03 0.03 0.03 0.02 0.02 0.02 0.02 0.02 0.03 0.03 0.03
0.03 0.03 0.02 0.02 0.02 0.02 0.02 0.04 0.05 0.05 0.05 0.05 0.05 0.06 0.05 0.05 0.04 0.04 0.04 0.04 0.05 0.06 0.06 0.06 0.05 0.06 0.06 0.06 0.05 0.05 0.04 0.04 0.03 0.03 0.02 0.02 0.02 0.02 0.03 0.03 0.03 0.03 0.03
0.03 0.03 0.03 0.02 0.02 0.02 0.02 0.03 0.05 0.06 0.06 0.06 0.06 0.05 0.06 0.06 0.05 0.05 0.04 0.04 0.04 0.05 0.06 0.06 0.06 0.05 0.05 0.05 0.05 0.06 0.06 0.05 0.04 0.03 0.02 0.02 0.02 0.03 0.03 0.04 0.04 0.03 0.03
0.03 0.03 0.03 0.03 0.03 0.03 0.03 0.03 0.04 0.05 0.06 0.06 0.06 0.06 0.05 0.05 0.06 0.05 0.05 0.04 0.04 0.05 0.05 0.05 0.05 0.05 0.05 0.05 0.05 0.05 0.06 0.06 0.05 0.03 0.02 0.02 0.02 0.03 0.03 0.03 0.04 0.03 0.03
0.03 0.03 0.03 0.03 0.03 0.03 0.03 0.03 0.04 0.05 0.06 0.06 0.06 0.07 0.06 0.05 0.05 0.06 0.05 0.05 0.05 0.05 0.05 0.04 0.04 0.04 0.05 0.05 0.05 0.04 0.04 0.04 0.04 0.03 0.03 0.03 0.03 0.04 0.04 0.04 0.04 0.04 0.05
0.03 0.03 0.03 0.03 0.03 0.03 0.04 0.04 0.04 0.05 0.05 0.06 0.06 0.06 0.07 0.06 0.05 0.05 0.05 0.05 0.05 0.05 0.04 0.04 0.04 0.04 0.04 0.04 0.04 0.04 0.04 0.04 0.03 0.02 0.02 0.03 0.04 0.05 0.05 0.04 0.05 0.05 0.05
0.02 0.03 0.03 0.03 0.03 0.03 0.03 0.04 0.04 0.04 0.05 0.05 0.06 0.06 0.06 0.06 0.06 0.05 0.05 0.05 0.05 0.05 0.04 0.04 0.04 0.04 0.04 0.04 0.05 0.04 0.03 0.03 0.03 0.03 0.03 0.03 0.04 0.04 0.04 0.04 0.05 0.04 0.04
0.02 0.02 0.02 0.03 0.03 0.03 0.03 0.03 0.04 0.04 0.04 0.04 0.05 0.05 0.05 0.06 0.06 0.05 0.05 0.05 0.04 0.04 0.04 0.04 0.03 0.04 0.05 0.05 0.05 0.05 0.04 0.04 0.04 0.04 0.04 0.05 0.05 0.05 0.04 0.04 0.04 0.04 0.04
0.02 0.02 0.02 0.02 0.03 0.02 0.03 0.03 0.03 0.04 0.04 0.04 0.04 0.04 0.04 0.05 0.05 0.05 0.05 0.05 0.04 0.04 0.04 0.03 0.03 0.03 0.04 0.05 0.05 0.05 0.04 0.03 0.03 0.04 0.04 0.04 0.04 0.05 0.04 0.04 0.04 0.04 0.04
MSLP
1022.86 1024.39 1025.75 1026.87 1027.71 1028.25 1028.54 1028.64 1028.63 1028.61 1028.66 1028.82 1029.12 1029.52 1029.99 1030.45 1030.85 1031.12 1031.25 1031.23 1031.10 1030.89 1030.65 1030.44 1030.29 1030.21 1030.19 1030.21 1030.25 1030.27 1030.25 1030.19 1030.11 1030.00 1029.91 1029.83 1029.78 1029.75 1029.75 1029.74 1029.71 1029.64 1029.52
1023.15 1024.67 1026.02 1027.13 1027.95 1028.48 1028.76 1028.85 1028.84 1028.82 1028.86 1029.03 1029.32 1029.73 1030.21 1030.68 1031.09 1031.38 1031.52 1031.51 1031.38 1031.18 1030.95 1030.75 1030.61 1030.56 1030.57 1030.63 1030.71 1030.78 1030.81 1030.79 1030.73 1030.64 1030.54 1030.45 1030.37 1030.32 1030.28 1030.25 1030.20 1030.13 1030.03
1023.45 1024.92 1026.22 1027.30 1028.11 1028.65 1028.95 1029.06 1029.07 1029.07 1029.11 1029.27 1029.55 1029.94 1030.39 1030.84 1031.24 1031.52 1031.67 1031.68 1031.57 1031.39 1031.19 1031.02 1030.91 1030.88 1030.92 1031.01 1031.12 1031.22 1031.29 1031.31 1031.28 1031.22 1031.14 1031.07 1031.00 1030.94 1030.90 1030.86 1030.81 1030.73 1030.63
1023.72 1025.08 1026.31 1027.35 1028.16 1028.73 1029.07 1029.25 1029.31 1029.34 1029.41 1029.56 1029.81 1030.15 1030.55 1030.95 1031.31 1031.58 1031.72 1031.75 1031.67 1031.54 1031.38 1031.25 1031.17 1031.16 1031.22 1031.33 1031.46 1031.58 1031.67 1031.73 1031.74 1031.73 1031.70 1031.66 1031.63 1031.61 1031.59 1031.57 1031.52 1031.44 1031.33
1023.91 1025.14 1026.28 1027.27 1028.09 1028.70 1029.12 1029.39 1029.53 1029.63 1029.73 1029.88 1030.10 1030.38 1030.71 1031.05 1031.35 1031.58 1031.72 1031.76 1031.72 1031.63 1031.52 1031.44 1031.39 1031.41 1031.48 1031.59 1031.72 1031.85 1031.96 1032.04 1032.10 1032.14 1032.17 1032.20 1032.23 1032.27 1032.30 1032.31 1032.28 1032.21 1032.08
1024.04 1025.11 1026.13 1027.08 1027.90 1028.57 1029.08 1029.46 1029.71 1029.90 1030.05 1030.21 1030.41 1030.64 1030.90 1031.16 1031.40 1031.59 1031.71 1031.76 1031.75 1031.70 1031.64 1031.59 1031.58 1031.61 1031.68 1031.79 1031.91 1032.03 1032.15 1032.25 1032.35 1032.44 1032.53 1032.63 1032.74 1032.85 1032.94 1032.99 1033.00 1032.94 1032.81
1024.11 1025.01 1025.92 1026.81 1027.63 1028.36 1028.98 1029.47 1029.84 1030.12 1030.34 1030.53 1030.71 1030.90 1031.09 1031.29 1031.47 1031.61 1031.71 1031.77 1031.78 1031.77 1031.74 1031.73 1031.74 1031.77 1031.83 1031.92 1032.02 1032.13 1032.24 1032.35 1032.47 1032.60 1032.75 1032.91 1033.09 1033.26 1033.41 1033.52 1033.57 1033.54 1033.42
1024.20 1024.94 1025.73 1026.55 1027.36 1028.13 1028.82 1029.42 1029.90 1030.27 1030.56 1030.79 1030.97 1031.13 1031.28 1031.42 1031.55 1031.66 1031.74 1031.79 1031.82 1031.83 1031.83 1031.83 1031.85 1031.88 1031.93 1031.99 1032.07 1032.15 1032.24 1032.34 1032.46 1032.61 1032.79 1032.99 1033.22 1033.45 1033.65 1033.81 1033.90 1033.90 1033.81
1024.40 1024.98 1025.65 1026.39 1027.16 1027.94 1028.68 1029.34 1029.89 1030.34 1030.69 1030.95 1031.14 1031.29 1031.42 1031.52 1031.61 1031.69 1031.75 1031.80 1031.83 1031.85 1031.87 1031.88 1031.90 1031.92 1031.95 1031.99 1032.03 1032.08 1032.14 1032.22 1032.33 1032.48 1032.66 1032.88 1033.13 1033.38 1033.62 1033.82 1033.95 1033.99 1033.94
1024.79 1025.23 1025.78 1026.42 1027.12 1027.86 1028.59 1029.26 1029.84 1030.32 1030.69 1030.98 1031.18 1031.33 1031.44 1031.52 1031.59 1031.65 1031.71 1031.75 1031.78 1031.81 1031.83 1031.84 1031.86 1031.87 1031.88 1031.89 1031.91 1031.93 1031.96 1032.01 1032.10 1032.22 1032.38 1032.59 1032.83 1033.08 1033.34 1033.56 1033.73 1033.82 1033.81
1025.43 1025.76 1026.18 1026.70 1027.29 1027.94 1028.59 1029.20 1029.75 1030.20 1030.57 1030.84 1031.04 1031.18 1031.28 1031.36 1031.42 1031.48 1031.53 1031.57 1031.61 1031.64 1031.67 1031.68 1031.69 1031.70 1031.70 1031.70 1031.70 1031.69 1031.70 1031.72 1031.77 1031.86 1031.99 1032.17 1032.38 1032.62 1032.87 1033.11 1033.30 1033.43 1033.48
1026.33 1026.55 1026.85 1027.23 1027.68 1028.18 1028.69 1029.19 1029.63 1030.01 1030.31 1030.54 1030.71 1030.83 1030.93 1031.01 1031.07 1031.13 1031.19 1031.24 1031.29 1031.32 1031.35 1031.38 1031.39 1031.40 1031.40 1031.40 1031.39 1031.38 1031.37 1031.38 1031.40 1031.45 1031.55 1031.68 1031.87 1032.08 1032.31 1032.55 1032.76 1032.92 1033.03
1027.41 1027.55 1027.72 1027.95 1028.23 1028.55 1028.89 1029.21 1029.50 1029.75 1029.95 1030.10 1030.22 1030.31 1030.39 1030.46 1030.54 1030.61 1030.68 1030.74 1030.80 1030.85 1030.89 1030.92 1030.95 1030.97 1030.99 1031.00 1031.01 1031.00 1030.99 1030.99 1031.00 1031.03 1031.09 1031.20 1031.34 1031.53 1031.74 1031.97 1032.19 1032.39 1032.54
1028.58 1028.64 1028.70 1028.78 1028.88 1029.00 1029.13 1029.26 1029.36 1029.45 1029.51 1029.56 1029.61 1029.65 1029.71 1029.77 1029.84 1029.93 1030.01 1030.09 1030.16 1030.23 1030.28 1030.34 1030.39 1030.43 1030.47 1030.51 1030.53 1030.55 1030.56 1030.56 1030.57 1030.59 1030.64 1030.72 1030.85 1031.01 1031.21 1031.43 1031.65 1031.87 1032.05
1029.71 1029.70 1029.65 1029.59 1029.52 1029.45 1029.38 1029.30 1029.22 1029.13 1029.05 1028.98 1028.94 1028.93 1028.94 1028.99 1029.06 1029.15 1029.24 1029.33 1029.42 1029.50 1029.58 1029.65 1029.72 1029.79 1029.86 1029.92 1029.98 1030.02 1030.06 1030.08 1030.10 1030.13 1030.18 1030.26 1030.37 1030.52 1030.71 1030.92 1031.14 1031.36 1031.56
1030.68 1030.60 1030.46 1030.28 1030.07 1029.83 1029.58 1029.32 1029.06 1028.82 1028.60 1028.42 1028.29 1028.21 1028.19 1028.21 1028.27 1028.35 1028.44 1028.54 1028.64 1028.73 1028.82 1028.90 1028.99 1029.08 1029.17 1029.26 1029.34 1029.41 1029.47 1029.51 1029.56 1029.60 1029.67 1029.75 1029.87 1030.02 1030.21 1030.41 1030.64 1030.85 1031.06
1031.41 1031.26 1031.04 1030.77 1030.45 1030.09 1029.70 1029.30 1028.91 1028.54 1028.21 1027.93 1027.72 1027.58 1027.51 1027.50 1027.53 1027.60 1027.68 1027.77 1027.86 1027.95 1028.04 1028.13 1028.22 1028.31 1028.41 1028.51 1028.60 1028.69 1028.77 1028.84 1028.90 1028.97 1029.05 1029.16 1029.29 1029.45 1029.64 1029.84 1030.06 1030.28 1030.47
1031.86 1031.64 1031.37 1031.03 1030.64 1030.20 1029.74 1029.25 1028.77 1028.32 1027.91 1027.56 1027.29 1027.09 1026.97 1026.91 1026.91 1026.94 1026.99 1027.06 1027.13 1027.20 1027.27 1027.35 1027.42 1027.51 1027.59 1027.69 1027.78 1027.87 1027.95 1028.03 1028.11 1028.20 1028.30 1028.42 1028.57 1028.75 1028.95 1029.16 1029.38 1029.59 1029.78
1032.04 1031.78 1031.46 1031.09 1030.67 1030.21 1029.71 1029.19 1028.67 1028.17 1027.72 1027.32 1027.00 1026.75 1026.58 1026.47 1026.42 1026.40 1026.41 1026.44 1026.46 1026.50 1026.53 1026.57 1026.62 1026.67 1026.73 1026.80 1026.87 1026.94 1027.02 1027.10 1027.19 1027.29 1027.40 1027.55 1027.71 1027.90 1028.11 1028.33 1028.56 1028.77 1028.97
1032.04 1031.73 1031.40 1031.02 1030.60 1030.15 1029.65 1029.14 1028.62 1028.12 1027.64 1027.22 1026.86 1026.56 1026.33 1026.17 1026.05 1025.97 1025.92 1025.88 1025.86 1025.83 1025.82 1025.81 1025.80 1025.81 1025.83 1025.87 1025.91 1025.95 1026.01 1026.08 1026.17 1026.27 1026.39 1026.55 1026.73 1026.93 1027.16 1027.39 1027.63 1027.86 1028.07
1031.92 1031.60 1031.26 1030.90 1030.51 1030.08 1029.62 1029.14 1028.64 1028.14 1027.67 1027.23 1026.83 1026.49 1026.20 1025.97 1025.78 1025.63 1025.50 1025.39 1025.29 1025.20 1025.12 1025.06 1025.00 1024.96 1024.93 1024.92 1024.92 1024.94 1024.97 1025.02 1025.10 1025.20 1025.33 1025.49 1025.68 1025.90 1026.14 1026.39 1026.65 1026.90 1027.15
1031.79 1031.46 1031.13 1030.80 1030.44 1030.06 1029.64 1029.19 1028.72 1028.24 1027.77 1027.31 1026.88 1026.49 1026.14 1025.83 1025.56 1025.32 1025.11 1024.92 1024.75 1024.59 1024.44 1024.31 1024.20 1024.11 1024.04 1023.98 1023.95 1023.93 1023.95 1023.98 1024.04 1024.14 1024.27 1024.43 1024.63 1024.86 1025.11 1025.39 1025.67 1025.96 1026.25
1031.69 1031.38 1031.08 1030.77 1030.45 1030.11 1029.73 1029.31 1028.86 1028.39 1027.91 1027.42 1026.95 1026.50 1026.08 1025.69 1025.34 1025.02 1024.72 1024.45 1024.20 1023.98 1023.77 1023.59 1023.42 1023.28 1023.17 1023.08 1023.02 1022.98 1022.97 1022.99 1023.04 1023.13 1023.26 1023.42 1023.63 1023.86 1024.13 1024.43 1024.74 1025.07 1025.41
1031.67 1031.38 1031.11 1030.83 1030.54 1030.22 1029.86 1029.46 1029.02 1028.54 1028.03 1027.51 1026.99 1026.48 1025.99 1025.53 1025.09 1024.69 1024.31 1023.97 1023.65 1023.37 1023.10 1022.87 1022.66 1022.49 1022.34 1022.22 1022.14 1022.08 1022.06 1022.07 1022.12 1022.20 1022.33 1022.49 1022.69 1022.94 1023.22 1023.53 1023.88 1024.25 1024.64
1031.71 1031.46 1031.21 1030.96 1030.68 1030.36 1030.00 1029.60 1029.14 1028.64 1028.10 1027.54 1026.96 1026.39 1025.83 1025.30 1024.79 1024.31 1023.87 1023.46 1023.09 1022.75 1022.44 1022.17 1021.92 1021.72 1021.54 1021.41 1021.30 1021.24 1021.20 1021.21 1021.26 1021.34 1021.46 1021.62 1021.82 1022.06 1022.35 1022.67 1023.04 1023.45 1023.88
1031.82 1031.59 1031.35 1031.10 1030.81 1030.48 1030.10 1029.67 1029.18 1028.65 1028.07 1027.46 1026.83 1026.20 1025.58 1024.98 1024.41 1023.88 1023.38 1022.92 1022.51 1022.12 1021.78 1021.47 1021.20 1020.97 1020.77 1020.62 1020.50 1020.42 1020.39 1020.39 1020.42 1020.50 1020.61 1020.77 1020.96 1021.20 1021.48 1021.81 1022.19 1022.62 1023.09
Thickness
5549 5545 5543 5541 5540 5540 5540 5539 5539 5539 5539 5540 5540 5541 5542 5543 5544 5545 5545 5546 5548 5549 5550 5549 5549 5550 5551 5552 5552 5553 5552 5551 5552 5552 5552 5554 5557 5559 5561 5563 5564 5565 5565
5539 5536 5532 5530 5529 5529 5529 5529 5528 5528 5528 5528 5528 5529 5530 5531 5532 5532 5533 5534 5535 5536 5537 5537 5538 5538 5539 5539 5540 5540 5539 5539 5541 5541 5540 5540 5541 5545 5548 5550 5552 5553 5554
5529 5526 5523 5520 5518 5518 5518 5518 5517 5517 5517 5517 5516 5516 5518 5518 5519 5520 5521 5521 5522 5523 5524 5525 5525 5526 5527 5527 5527 5527 5528 5527 5528 5529 5529 5529 5530 5530 5533 5537 5538 5540 5541
5520 5515 5513 5510 5508 5507 5507 5507 5506 5505 5505 5505 5504 5505 5506 5507 5508 5509 5509 5509 5509 5510 5511 5512 5513 5513 5514 5514 5514 5514 5514 5515 5515 5515 5517 5518 5519 5518 5519 5521 5524 5526 5527
5509 5505 5502 5500 5498 5496 5495 5495 5494 5493 5492 5492 5492 5493 5494 5495 5496 5496 5497 5497 5496 5496 5497 5498 5499 5500 5500 5501 5500 5500 5500 5501 5502 5502 5502 5504 5505 5506 5506 5507 5509 5511 5514
5499 5495 5491 5489 5486 5484 5483 5482 5481 5480 5479 5479 5480 5481 5482 5482 5483 5483 5484 5484 5484 5484 5484 5486 5486 5487 5487 5487 5487 5487 5487 5488 5488 5488 5489 5490 5491 5492 5492 5493 5494 5496 5499
5488 5482 5478 5476 5474 5471 5470 5469 5468 5467 5466 5466 5467 5468 5469 5470 5471 5471 5471 5471 5471 5471 5472 5473 5473 5473 5474 5474 5474 5473 5473 5473 5474 5474 5475 5477 5478 5479 5479 5478 5479 5481 5485
5476 5471 5467 5464 5461 5459 5458 5456 5455 5454 5453 5453 5454 5454 5455 5456 5457 5458 5459 5459 5459 5459 5459 5459 5459 5459 5460 5460 5460 5460 5460 5459 5459 5460 5461 5462 5463 5464 5466 5465 5464 5465 5469
5463 5459 5455 5452 5450 5448 5446 5445 5443 5442 5441 5440 5441 5442 5442 5443 5443 5444 5445 5446 5446 5446 5446 5446 5445 5446 5446 5446 5446 5446 5446 5446 5446 5446 5447 5447 5448 5449 5451 5451 5452 5452 5454
5448 5445 5443 5440 5438 5436 5434 5433 5431 5430 5429 5429 5429 5429 5429 5430 5430 5430 5430 5432 5432 5432 5432 5432 5432 5432 5432 5433 5433 5433 5432 5432 5433 5433 5433 5434 5434 5435 5436 5437 5438 5440 5442
5435 5432 5429 5427 5425 5423 5421 5420 5419 5418 5417 5416 5417 5416 5416 5416 5416 5417 5416 5417 5418 5419 5419 5419 5419 5419 5419 5419 5419 5419 5419 5419 5419 5420 5420 5421 5421 5421 5422 5423 5425 5426 5427
5422 5419 5416 5414 5411 5410 5408 5407 5406 5405 5404 5404 5403 5403 5403 5403 5403 5403 5403 5403 5404 5405 5406 5406 5406 5406 5406 5406 5406 5405 5406 5406 5406 5406 5407 5407 5408 5408 5408 5409 5411 5413 5414
5409 5405 5402 5400 5398 5397 5395 5394 5393 5392 5391 5391 5390 5390 5389 5389 5389 5389 5389 5389 5390 5391 5392 5392 5393 5393 5393 5393 5393 5393 5393 5393 5393 5394 5394 5394 5394 5395 5395 5396 5398 5399 5402
5396 5392 5390 5387 5386 5384 5383 5381 5380 5379 5378 5377 5377 5376 5377 5377 5377 5376 5376 5376 5376 5378 5378 5379 5379 5379 5379 5380 5380 5380 5380 5380 5380 5381 5381 5381 5381 5382 5383 5383 5384 5386 5388
5384 5380 5378 5375 5373 5371 5369 5368 5367 5366 5365 5364 5363 5363 5363 5363 5363 5363 5363 5363 5363 5363 5364 5364 5365 5365 5365 5366 5366 5366 5367 5366 5366 5367 5367 5368 5368 5369 5370 5372 5373 5373 5374
5373 5370 5367 5364 5361 5359 5357 5355 5355 5354 5352 5351 5351 5350 5350 5350 5350 5350 5349 5349 5349 5348 5348 5349 5350 5350 5351 5352 5354 5354 5353 5353 5352 5352 5353 5354 5354 5356 5357 5359 5360 5361 5361
5361 5358 5355 5352 5349 5346 5345 5343 5342 5341 5340 5339 5338 5337 5337 5337 5337 5336 5335 5335 5334 5334 5333 5334 5335 5336 5337 5339 5340 5340 5340 5339 5338 5338 5338 5339 5340 5341 5343 5344 5346 5348 5349
5348 5344 5342 5339 5336 5334 5332 5331 5330 5328 5327 5326 5325 5325 5324 5323 5323 5322 5321 5321 5320 5320 5319 5320 5321 5322 5323 5324 5325 5326 5325 5325 5325 5325 5325 5325 5327 5327 5329 5330 5332 5334 5336
5335 5331 5328 5326 5323 5321 5319 5318 5316 5314 5314 5313 5312 5311 5310 5310 5309 5309 5308 5307 5306 5306 5306 5307 5307 5307 5309 5310 5312 5312 5311 5312 5312 5311 5311 5311 5313 5315 5316 5317 5319 5321 5323
5322 5318 5315 5312 5310 5308 5306 5304 5302 5300 5300 5299 5298 5297 5296 5296 5295 5295 5294 5293 5293 5293 5292 5293 5293 5294 5295 5296 5298 5298 5298 5298 5299 5298 5298 5299 5300 5302 5302 5303 5304 5307 5310
5307 5304 5301 5298 5295 5294 5293 5290 5288 5286 5286 5285 5285 5284 5283 5282 5282 5281 5280 5279 5279 5278 5278 5279 5279 5280 5281 5282 5283 5283 5283 5283 5283 5284 5284 5285 5287 5289 5291 5291 5292 5294 5296
5292 5289 5286 5283 5281 5280 5279 5277 5274 5273 5272 5271 5270 5269 5269 5268 5268 5267 5266 5265 5264 5264 5263 5264 5265 5265 5266 5267 5268 5269 5269 5269 5269 5270 5270 5272 5274 5276 5278 5278 5280 5281 5282
5278 5275 5272 5270 5268 5266 5265 5262 5260 5259 5258 5257 5255 5255 5254 5253 5253 5252 5251 5251 5250 5249 5249 5250 5251 5251 5252 5253 5254 5255 5255 5256 5255 5256 5257 5259 5260 5262 5264 5265 5267 5268 5268
5265 5262 5259 5257 5254 5252 5251 5249 5248 5246 5245 5243 5241 5241 5239 5239 5238 5238 5238 5237 5236 5235 5235 5236 5236 5237 5238 5238 5240 5240 5241 5242 5242 5243 5244 5245 5246 5247 5249 5250 5252 5253 5255
5252 5249 5245 5243 5241 5239 5237 5237 5235 5233 5231 5229 5227 5226 5226 5224 5224 5223 5223 5223 5223 5222 5222 5222 5222 5223 5224 5226 5227 5227 5228 5228 5228 5228 5229 5230 5231 5232 5234 5235 5236 5238 5241
5239 5235 5232 5230 5227 5225 5224 5222 5221 5219 5217 5216 5214 5213 5212 5211 5210 5210 5210 5210 5210 5210 5209 5210 5210 5211 5212 5213 5213 5214 5215 5215 5214 5213 5213 5215 5216 5217 5219 5220 5222 5224 5227